sat.trackr.live / text

‹ back to catalog

STARLINK-2486

NORAD 48143 · 2021-027BD

PAYLOAD ACTIVE UNKNOWN

§ Identity

Operator
Country
US
Launch date
2021-04-07
Launch site
AFETR
Launch vehicle
Mass (kg)
RCS (m²)

Purposes: comms

External: N2YO · Heavens-Above · Gunter

§ Orbital elements

Epoch: 2026-09-13T03:34:30.402336Z

Period
93.03 min
Inclination
53.1518°
Eccentricity
0.0004835
Mean motion
15.47952804 rev/d
Perigee alt
419.4 km
Apogee alt
426.0 km
Semi-major
6,800.9 km
B*
8.4580e-4
RAAN
298.6848°
Arg perigee
24.4968°
Mean anomaly
335.6269°
Rev number
30,227

§ Raw data

STARLINK-24861 48143U 21027BD  26256.14896299  .00044689  00000+0  84580-3 0  99992 48143  53.1518 298.6848 0004835  24.4968 335.6269 15.47952804302276

JSON: /api/v1/satellites/48143 · /tle

For live sub-satellite position, see the globe view (requires WebGL).

§ Visibility from observer

Set your observer location to see the next 7 days of passes ≥ 10°. The values pass through the URL so the page stays shareable.

No JS? Fill the form by hand. The geolocation button needs JavaScript.